GW5333 Weather Reports


time (UTC)temp
F
wind
direction
speed
knots
gust
knots
rain 1hr
in
rain 24hr
in
rain mn
in
humidity
%
barometer
mb
20260509064948 71 247 0.0 0.0 0.00 0.00 0.00 86 1011.1
20260509064446 71 229 0.0 0.0 0.00 0.00 0.00 86 1011.1
20260509063944 71 218 0.0 0.0 0.00 0.00 0.00 86 1010.7
20260509063438 71 124 0.0 0.0 0.00 0.00 0.00 86 1010.7
20260509062935 71 141 0.0 0.0 0.00 0.00 0.00 85 1010.7
20260509062433 71 151 0.0 0.0 0.00 0.00 0.00 85 1010.7
20260509061930 71 129 0.0 0.0 0.00 0.00 0.00 84 1010.7
20260509061428 71 159 0.0 0.0 0.00 0.00 0.00 84 1010.3
20260509060925 71 170 0.0 0.0 0.00 0.00 0.00 84 1010.7
20260509060422 71 148 0.0 0.0 0.00 0.00 0.00 84 1011.1
20260509055917 71 158 0.0 0.0 0.00 0.00 0.00 83 1011.4
20260509055413 71 175 0.0 0.0 0.00 0.00 0.00 83 1011.4
20260509054910 71 141 0.0 0.0 0.00 0.00 0.00 83 1011.4
20260509054406 71 180 0.0 0.0 0.00 0.00 0.00 83 1011.8
20260509053905 72 328 0.0 0.0 0.00 0.00 0.00 83 1011.8
20260509053402 72 292 0.0 0.0 0.00 0.00 0.00 82 1011.8
20260509052900 71 150 0.0 0.0 0.00 0.00 0.00 82 1011.4
20260509052357 71 209 0.0 0.0 0.00 0.00 0.00 82 1011.8
20260509051855 71 272 0.0 0.0 0.00 0.00 0.00 82 1012.4
20260509051353 71 332 0.0 0.0 0.00 0.00 0.00 82 1012.4
20260509050849 71 326 0.0 0.0 0.00 0.00 0.00 82 1012.1
20260509050346 72 312 0.0 0.0 0.00 0.00 0.00 82 1011.8
20260509045843 72 227 0.0 0.0 0.00 0.00 0.00 82 1011.1
20260509045340 72 131 0.0 0.0 0.00 0.00 0.00 82 1010.7
20260509044837 72 158 0.0 0.0 0.00 0.00 0.00 81 1010.7
20260509044334 72 167 0.0 0.0 0.00 0.00 0.00 81 1010.7
20260509043831 72 287 0.0 0.0 0.00 0.00 0.00 81 1010.7
20260509043327 73 242 0.0 0.0 0.00 0.00 0.00 80 1010.7
20260509042823 73 195 0.0 0.0 0.00 0.00 0.00 80 1010.3
20260509042319 73 152 0.0 0.0 0.00 0.00 0.00 80 1010.3
20260509041816 73 149 0.0 0.0 0.00 0.00 0.00 79 1010.7
20260509041313 73 133 0.0 0.0 0.00 0.00 0.00 78 1010.7
20260509040811 73 199 0.0 0.0 0.00 0.00 0.00 77 1010.3
20260509040308 73 114 0.0 0.0 0.00 0.00 0.00 77 1010.7
20260509035805 73 141 0.0 0.0 0.00 0.00 0.00 77 1011.4
20260509035306 73 57 0.0 0.0 0.00 0.00 0.00 77 1011.8
20260509034759 73 44 0.0 0.0 0.00 0.00 0.00 77 1011.8
20260509034257 73 65 0.0 0.0 0.00 0.00 0.00 77 1011.8
20260509033753 73 340 0.0 0.0 0.00 0.00 0.00 77 1011.8
20260509033251 73 51 0.0 0.0 0.00 0.00 0.00 77 1011.4
20260509032747 73 293 0.0 0.0 0.00 0.00 0.00 77 1011.4
20260509032244 73 150 0.0 0.0 0.00 0.00 0.00 76 1011.1
20260509031742 73 176 0.0 0.0 0.00 0.00 0.00 77 1011.1
20260509031239 73 129 0.0 0.0 0.00 0.00 0.00 77 1011.1
20260509030737 73 346 0.0 0.0 0.00 0.00 0.00 77 1011.1
20260509030235 73 168 0.0 0.0 0.00 0.00 0.00 77 1011.1
20260509025731 73 176 0.0 0.0 0.00 0.00 0.00 77 1011.1
20260509025227 73 150 0.0 0.0 0.00 0.00 0.00 77 1010.7
20260509024722 73 173 0.0 0.0 0.00 0.00 0.00 77 1010.7
20260509024218 73 160 0.0 0.0 0.00 0.00 0.00 77 1010.3
20260509023716 73 142 0.0 0.0 0.00 0.00 0.00 77 1010.0
20260509023213 73 176 0.0 0.0 0.00 0.00 0.00 76 1010.0
20260509022709 73 168 0.0 0.0 0.00 0.00 0.00 76 1010.0
20260509022207 73 133 0.0 0.0 0.00 0.00 0.00 76 1010.0
20260509021703 73 157 0.0 0.0 0.00 0.00 0.00 76 1010.0
20260509021201 73 157 0.0 0.0 0.00 0.00 0.00 76 1010.0
20260509020659 73 182 0.0 0.0 0.00 0.00 0.00 76 1009.6
20260509020155 73 181 0.0 0.0 0.00 0.00 0.00 76 1010.0
20260509015654 74 174 0.0 0.0 0.00 0.00 0.00 77 1009.6
20260509015152 74 136 0.0 0.0 0.00 0.00 0.00 76 1010.0
20260509014648 74 178 0.0 0.0 0.00 0.00 0.00 76 1009.6
20260509014144 74 180 0.0 0.0 0.00 0.00 0.00 76 1009.6
20260509013641 74 139 0.0 0.0 0.00 0.00 0.00 75 1009.6
20260509013137 74 177 0.0 0.0 0.00 0.00 0.00 75 1009.6
20260509012634 74 194 0.0 0.0 0.00 0.00 0.00 74 1009.6
20260509012131 74 188 0.0 0.0 0.00 0.00 0.00 74 1009.6
20260509011629 74 164 0.0 0.0 0.00 0.00 0.00 74 1009.6
20260509011126 74 140 0.0 0.0 0.00 0.00 0.00 74 1009.3
20260509010623 74 180 0.0 0.0 0.00 0.00 0.00 74 1009.6
20260509010120 74 151 0.0 0.0 0.00 0.00 0.00 74 1009.3
20260509005618 74 165 0.0 0.0 0.00 0.00 0.00 73 1009.3
20260509005113 74 182 0.0 0.0 0.00 0.00 0.00 73 1009.3
20260509004609 75 145 0.0 0.0 0.00 0.00 0.00 73 1009.3
20260509004107 75 136 0.0 0.0 0.00 0.00 0.00 72 1009.0
20260509003605 75 140 0.0 2.6 0.00 0.00 0.00 72 1009.0
20260509003102 75 128 0.0 0.0 0.00 0.00 0.00 72 1009.0
20260509002559 75 153 0.0 0.0 0.00 0.00 0.00 71 1009.0
20260509002057 75 169 0.0 0.0 0.00 0.00 0.00 71 1009.0
20260509001554 76 138 0.0 0.0 0.00 0.00 0.00 70 1009.0
20260509001049 76 175 0.0 0.0 0.00 0.00 0.00 70 1009.0
20260509000548 76 154 0.0 0.0 0.00 0.00 0.00 69 1009.0
20260509000044 76 178 0.0 0.0 0.00 0.00 0.00 69 1009.0
20260508235542 77 143 0.0 0.0 0.00 0.00 0.00 68 1009.3
20260508235038 77 190 0.0 0.0 0.00 0.00 0.00 69 1009.3
20260508234536 77 181 0.0 0.0 0.00 0.00 0.00 69 1009.3
20260508234032 77 172 0.0 0.0 0.00 0.00 0.00 68 1009.0
20260508233532 77 175 0.0 0.0 0.00 0.00 0.00 66 1009.3
20260508233029 77 163 0.0 0.0 0.00 0.00 0.00 67 1009.3
20260508232525 77 143 0.0 0.0 0.00 0.00 0.00 68 1009.6
20260508232022 77 169 0.0 0.0 0.00 0.00 0.00 66 1009.6
20260508231520 77 152 0.0 0.0 0.00 0.00 0.00 67 1009.3
20260508231017 78 145 0.0 0.0 0.00 0.00 0.00 67 1009.6
20260508230514 78 173 0.0 0.0 0.00 0.00 0.00 66 1009.6
20260508230010 78 145 0.0 0.0 0.00 0.00 0.00 65 1009.6
20260508225508 78 150 0.0 0.0 0.00 0.00 0.00 66 1009.3
20260508225004 78 169 0.0 0.0 0.00 0.00 0.00 66 1009.6
20260508224502 79 163 0.0 0.0 0.00 0.00 0.00 67 1009.6
20260508223959 80 165 0.0 0.0 0.00 0.00 0.00 66 1009.3
20260508223457 80 141 0.0 0.0 0.00 0.00 0.00 65 1009.6
20260508222954 80 177 0.0 0.0 0.00 0.00 0.00 66 1009.6
20260508222451 81 175 0.0 0.0 0.00 0.00 0.00 65 1009.6
20260508221947 81 126 0.0 0.0 0.00 0.00 0.00 64 1009.3
20260508221444 81 182 0.0 0.0 0.00 0.00 0.00 62 1009.6
20260508220940 81 137 0.0 0.0 0.00 0.00 0.00 62 1009.6
20260508220437 80 135 0.0 0.0 0.00 0.00 0.00 61 1009.3
20260508215933 80 154 0.0 0.0 0.00 0.00 0.00 63 1009.3
20260508215430 80 184 0.0 0.0 0.00 0.00 0.00 62 1009.3
20260508214926 80 162 0.0 0.0 0.00 0.00 0.00 60 1009.3
20260508214425 79 184 0.0 0.0 0.00 0.00 0.00 63 1009.0
20260508213920 79 176 0.0 0.0 0.00 0.00 0.00 62 1009.3
20260508213418 79 141 0.0 0.0 0.00 0.00 0.00 63 1009.3
20260508212913 79 148 0.0 0.0 0.00 0.00 0.00 63 1009.3
20260508212410 78 152 0.0 0.0 0.00 0.00 0.00 61 1009.6
20260508211906 78 166 0.0 0.0 0.00 0.00 0.00 62 1009.6
20260508211401 77 149 0.0 0.0 0.00 0.00 0.00 62 1010.0
20260508210859 77 145 0.0 0.0 0.00 0.00 0.00 63 1010.0
20260508210355 77 156 0.0 0.0 0.00 0.00 0.00 65 1010.3
20260508205852 77 197 0.0 0.0 0.00 0.00 0.00 66 1010.7
20260508205349 78 168 0.0 0.0 0.00 0.00 0.00 65 1011.1
20260508204845 78 263 0.0 0.0 0.00 0.00 0.00 65 1011.1
20260508204342 78 126 0.0 0.0 0.00 0.00 0.00 64 1011.4
20260508203838 79 170 0.0 0.0 0.00 0.00 0.00 64 1011.4
20260508203334 79 197 0.0 0.0 0.00 0.00 0.00 63 1011.4
20260508202830 80 134 0.0 0.0 0.00 0.00 0.00 63 1011.1
20260508202328 81 149 0.0 0.0 0.00 0.00 0.00 62 1011.4
20260508201825 82 133 0.0 0.0 0.00 0.00 0.00 61 1011.4
20260508201322 82 171 0.0 0.0 0.00 0.00 0.00 60 1011.4
20260508200813 82 185 0.0 0.0 0.00 0.00 0.00 60 1011.4
20260508200309 82 161 0.0 0.0 0.00 0.00 0.00 57 1011.4
20260508195806 81 142 0.0 0.0 0.00 0.00 0.00 58 1011.4
20260508195305 81 144 0.0 0.0 0.00 0.00 0.00 59 1011.4
20260508194758 80 167 0.0 0.0 0.00 0.00 0.00 59 1011.4
20260508194256 80 149 0.0 0.0 0.00 0.00 0.00 59 1011.8
20260508193753 80 186 0.0 0.0 0.00 0.00 0.00 61 1011.4
20260508193250 80 151 0.0 0.0 0.00 0.00 0.00 63 1011.4
20260508192745 80 147 0.0 0.0 0.00 0.00 0.00 62 1011.8
20260508192243 80 145 0.0 2.6 0.00 0.00 0.00 59 1011.8
20260508191740 80 169 0.0 0.0 0.00 0.00 0.00 60 1011.8
20260508191237 80 165 0.0 0.0 0.00 0.00 0.00 60 1011.8
20260508190734 81 136 0.0 0.0 0.00 0.00 0.00 59 1011.8
20260508190230 81 153 0.0 0.0 0.00 0.00 0.00 58 1011.8
20260508185727 81 164 0.0 0.0 0.00 0.00 0.00 59 1011.8
20260508185225 81 112 0.0 0.0 0.00 0.00 0.00 59 1011.8
20260508184721 81 178 0.0 0.0 0.00 0.00 0.00 57 1011.8
20260508184218 80 117 0.0 0.0 0.00 0.00 0.00 54 1011.8
20260508183715 80 151 0.0 0.0 0.00 0.00 0.00 54 1012.1
20260508183211 79 167 0.0 0.0 0.00 0.00 0.00 55 1012.1
20260508182707 79 166 0.0 0.0 0.00 0.00 0.00 59 1012.1
20260508182204 79 194 0.0 0.0 0.00 0.00 0.00 60 1012.1
20260508181700 79 156 0.0 0.0 0.00 0.00 0.00 61 1012.4
20260508181157 80 134 0.0 0.0 0.00 0.00 0.00 58 1012.4
20260508180653 80 184 0.0 0.0 0.00 0.00 0.00 57 1012.4
20260508180150 79 285 0.0 0.0 0.00 0.00 0.00 57 1012.8
20260508175647 79 146 0.0 0.0 0.00 0.00 0.00 58 1012.8
20260508175143 79 185 0.0 0.0 0.00 0.00 0.00 57 1012.8
20260508174641 78 184 0.0 0.0 0.00 0.00 0.00 57 1012.8
20260508174133 77 216 0.0 0.0 0.00 0.00 0.00 57 1012.8
20260508173629 77 142 0.0 0.0 0.00 0.00 0.00 59 1012.8
20260508173126 76 134 0.0 0.0 0.00 0.00 0.00 58 1013.1
20260508172623 75 168 0.0 0.0 0.00 0.00 0.00 61 1013.1
20260508172119 75 204 0.0 0.0 0.00 0.00 0.00 62 1013.5
20260508171616 75 139 0.0 0.0 0.00 0.00 0.00 62 1013.5
20260508171113 75 170 0.0 0.0 0.00 0.00 0.00 61 1013.5
20260508170610 74 138 0.0 0.0 0.00 0.00 0.00 62 1013.5
20260508170107 74 173 0.0 0.0 0.00 0.00 0.00 64 1013.8
20260508165604 75 129 0.0 0.0 0.00 0.00 0.00 63 1014.1
20260508165101 75 126 0.0 0.0 0.00 0.00 0.00 62 1014.1
20260508164557 74 139 0.0 0.0 0.00 0.00 0.00 62 1014.1
20260508164054 74 142 0.0 0.0 0.00 0.00 0.00 62 1014.1
20260508163552 74 146 0.0 0.0 0.00 0.00 0.00 62 1014.5
20260508163048 73 155 0.0 0.0 0.00 0.00 0.00 61 1014.5
20260508162545 73 173 0.0 0.0 0.00 0.00 0.00 63 1014.5
20260508162042 72 141 0.0 0.0 0.00 0.00 0.00 64 1014.5
20260508161539 72 173 0.0 0.0 0.00 0.00 0.00 63 1014.5
20260508161037 72 175 0.0 0.0 0.00 0.00 0.00 63 1014.8
20260508160535 72 173 0.0 0.0 0.00 0.00 0.00 64 1014.8
20260508160032 71 131 0.0 0.0 0.00 0.00 0.00 64 1014.8
20260508155528 71 192 0.0 0.0 0.00 0.00 0.00 65 1014.8
20260508155025 71 157 0.0 0.0 0.00 0.00 0.00 65 1014.8
20260508154522 71 161 0.0 0.0 0.00 0.00 0.00 64 1015.1
20260508154019 71 169 0.0 0.0 0.00 0.00 0.00 65 1014.8
20260508153515 71 159 0.0 0.0 0.00 0.00 0.00 65 1015.1
20260508153012 71 159 0.0 0.0 0.00 0.00 0.00 66 1015.1
20260508152509 71 185 0.0 0.0 0.00 0.00 0.00 64 1015.1
20260508152005 71 166 0.0 0.0 0.00 0.00 0.00 64 1015.1
20260508151502 70 168 0.0 0.0 0.00 0.00 0.00 65 1015.1
20260508150958 70 156 0.0 0.0 0.00 0.00 0.00 65 1015.1
20260508150455 69 172 0.0 0.0 0.00 0.00 0.00 65 1015.1
20260508145950 69 135 0.0 0.0 0.00 0.00 0.00 63 1015.1
20260508145448 69 131 0.0 0.0 0.00 0.00 0.00 65 1015.1
20260508144944 69 165 0.0 0.0 0.00 0.00 0.00 67 1014.8
20260508144442 69 143 0.0 0.0 0.00 0.00 0.00 71 1014.8
20260508143939 69 181 0.0 0.0 0.00 0.00 0.00 71 1015.1
20260508143437 69 137 0.0 0.0 0.00 0.00 0.00 67 1015.1
20260508142933 69 179 0.0 0.0 0.00 0.00 0.00 66 1015.1
20260508142431 68 169 0.0 0.0 0.00 0.00 0.00 66 1015.1
20260508141927 68 155 0.0 0.0 0.00 0.00 0.00 67 1015.1
20260508141424 68 152 0.0 0.0 0.00 0.00 0.00 69 1015.1
20260508140921 67 142 0.0 0.0 0.00 0.00 0.00 70 1015.5
20260508140418 67 163 0.0 0.0 0.00 0.00 0.00 71 1015.1
20260508135914 66 136 0.0 0.0 0.00 0.00 0.00 72 1015.1
20260508135411 66 155 0.0 0.0 0.00 0.00 0.00 71 1015.5
20260508134907 66 144 0.0 0.0 0.00 0.00 0.00 72 1015.1
20260508134403 65 152 0.0 0.0 0.00 0.00 0.00 74 1015.5
20260508133900 65 129 0.0 0.0 0.00 0.00 0.00 74 1015.1
20260508133358 64 131 0.0 0.0 0.00 0.00 0.00 77 1015.1
20260508132854 64 158 0.0 0.0 0.00 0.00 0.00 79 1015.5
20260508132353 64 108 0.0 0.0 0.00 0.00 0.00 79 1015.5
20260508131849 64 173 0.0 0.0 0.00 0.00 0.00 80 1015.5
20260508131345 64 183 0.0 0.0 0.00 0.00 0.00 80 1015.5
20260508130841 64 136 0.0 0.0 0.00 0.00 0.00 81 1015.1
20260508130338 63 106 0.0 0.0 0.00 0.00 0.00 81 1015.8
20260508125835 63 313 0.0 0.0 0.00 0.00 0.00 81 1015.8
20260508125331 63 202 0.0 0.0 0.00 0.00 0.00 81 1015.1
20260508124829 63 113 0.0 0.0 0.00 0.00 0.00 81 1015.1
20260508124326 63 119 0.0 0.0 0.00 0.00 0.00 81 1015.8
20260508123824 63 155 0.0 0.0 0.00 0.00 0.00 81 1015.8
20260508123322 63 181 0.0 0.0 0.00 0.00 0.00 81 1015.8
20260508122818 63 173 0.0 0.0 0.00 0.00 0.00 81 1015.8
20260508122315 63 174 0.0 0.0 0.00 0.00 0.00 81 1015.5
20260508121812 63 153 0.0 0.0 0.00 0.00 0.00 82 1015.5
20260508121311 63 137 0.0 0.0 0.00 0.00 0.00 82 1015.5
20260508120808 63 127 0.0 0.0 0.00 0.00 0.00 82 1015.5
20260508120306 63 189 0.0 0.0 0.00 0.00 0.00 82 1015.8
20260508115803 63 231 0.0 0.0 0.00 0.00 0.00 82 1015.8
20260508115300 63 173 0.0 0.0 0.00 0.00 0.00 82 1015.5
20260508114757 63 149 0.0 0.0 0.00 0.00 0.00 81 1015.5
20260508114254 63 180 0.0 0.0 0.00 0.00 0.00 81 1015.8
20260508113750 63 126 0.0 0.0 0.00 0.00 0.00 81 1015.8
20260508113249 63 211 0.0 0.0 0.00 0.00 0.00 82 1015.1
20260508112744 63 152 0.0 0.0 0.00 0.00 0.00 83 1015.1
20260508112241 63 159 0.0 0.0 0.00 0.00 0.00 83 1015.1
20260508111738 63 100 0.0 0.0 0.00 0.00 0.00 83 1015.1
20260508111236 63 121 0.0 0.0 0.00 0.00 0.00 83 1015.5
20260508110732 63 355 0.0 0.0 0.00 0.00 0.00 83 1015.8
20260508110230 63 347 0.0 0.0 0.00 0.00 0.00 83 1016.2
20260508105729 63 165 0.0 0.0 0.00 0.00 0.00 83 1015.8
20260508105226 63 154 0.0 0.0 0.00 0.00 0.00 83 1015.5
20260508104724 63 54 0.0 0.0 0.00 0.00 0.00 83 1015.8
20260508104220 63 305 0.0 0.0 0.00 0.00 0.00 83 1016.6
20260508103718 63 300 0.0 0.0 0.00 0.00 0.00 82 1015.5
20260508103215 63 240 0.0 0.0 0.00 0.00 0.00 82 1015.1
20260508102712 63 233 0.0 0.0 0.00 0.00 0.00 82 1014.8
20260508102210 63 140 0.0 0.0 0.00 0.00 0.00 82 1014.8
20260508101707 63 168 0.0 0.0 0.00 0.00 0.00 81 1014.5
20260508101205 63 143 0.0 0.0 0.00 0.00 0.00 81 1014.5
20260508100702 63 159 0.0 0.0 0.00 0.00 0.00 81 1014.5
20260508100200 63 145 0.0 0.0 0.00 0.00 0.00 80 1014.8
20260508095656 63 154 0.0 0.0 0.00 0.00 0.00 80 1014.5
20260508095153 63 178 0.0 0.0 0.00 0.00 0.00 79 1014.5
20260508094650 63 149 0.0 0.0 0.00 0.00 0.00 79 1014.5
20260508094147 63 167 0.0 0.0 0.00 0.00 0.00 79 1014.8
20260508093644 63 186 0.0 0.0 0.00 0.00 0.00 81 1015.1
20260508093141 63 181 0.0 0.0 0.00 0.00 0.00 80 1014.8
20260508092638 63 167 0.0 0.0 0.00 0.00 0.00 81 1014.8
20260508092137 63 357 0.0 0.0 0.00 0.00 0.00 80 1014.5
20260508091634 63 358 0.0 0.0 0.00 0.00 0.00 80 1014.8
20260508091131 63 353 0.0 0.0 0.00 0.00 0.00 79 1014.8
20260508090629 63 345 0.0 0.0 0.00 0.00 0.00 79 1015.1
20260508090126 63 338 0.0 0.0 0.00 0.00 0.00 79 1015.1
20260508085622 63 246 0.0 0.0 0.00 0.00 0.00 79 1015.1
20260508085119 63 227 0.0 0.0 0.00 0.00 0.00 79 1015.1
20260508084615 63 175 0.0 0.0 0.00 0.00 0.00 79 1015.1
20260508084113 63 173 0.0 0.0 0.00 0.00 0.00 79 1014.5
20260508083610 63 156 0.0 0.0 0.00 0.00 0.00 80 1014.8
20260508083107 63 167 0.0 0.0 0.00 0.00 0.00 80 1015.5
20260508082603 63 149 0.0 0.0 0.00 0.00 0.00 80 1015.5
20260508082100 63 173 0.0 0.0 0.00 0.00 0.00 80 1015.5
20260508081558 63 176 0.0 0.0 0.00 0.00 0.00 81 1015.5
20260508081053 63 102 0.0 0.0 0.00 0.00 0.00 81 1015.5
20260508080552 63 76 0.0 0.0 0.00 0.00 0.00 81 1016.2
20260508080049 63 275 0.0 0.0 0.00 0.00 0.00 80 1016.2
20260508075545 63 252 0.0 0.0 0.00 0.00 0.00 80 1016.9
20260508075043 63 289 0.0 0.0 0.00 0.00 0.00 80 1016.6
20260508074540 63 302 0.0 0.0 0.00 0.00 0.00 80 1016.6
20260508074037 63 313 0.0 0.0 0.00 0.00 0.00 80 1016.2
20260508073534 63 121 0.0 0.0 0.00 0.00 0.00 80 1015.8
20260508073032 63 105 0.0 0.0 0.00 0.00 0.00 80 1015.5
20260508072527 63 65 0.0 0.0 0.00 0.00 0.00 80 1015.8
20260508072025 63 129 0.0 0.0 0.00 0.00 0.00 79 1015.8
20260508071523 63 133 0.0 0.0 0.00 0.00 0.00 79 1015.8
20260508071020 63 107 0.0 0.0 0.00 0.00 0.00 79 1016.2
20260508070518 63 134 0.0 0.0 0.00 0.00 0.00 79 1016.2
20260508070016 63 86 0.0 0.0 0.00 0.00 0.00 79 1015.8
20260508065513 63 94 0.0 0.0 0.00 0.00 0.00 79 1016.2